FW3054 Weather Reports


time (UTC)temp
C
wind
direction
speed
KPH
gust
KPH
rain 1hr
cm
rain 24hr
cm
rain mn
cm
humidity
%
barometer
mb
20260509175610 28 23 1.6 4.8 0.00 0.00 0.00 35 1011.9
20260509174520 27 0.0 1.6 0.00 0.00 0.00 39 1012.0
20260509173520 27 0.0 3.2 0.00 0.00 0.00 39 1012.0
20260509172520 26 0.0 1.6 0.00 0.00 0.00 43 1012.1
20260509171520 25 0.0 1.6 0.00 0.00 0.00 46 1012.4
20260509170545 25 0.0 3.2 0.00 0.00 0.00 46 1012.6
20260509165520 25 0.0 3.2 0.00 0.00 0.00 51 1012.7
20260509164521 23 0.0 3.2 0.00 0.00 0.00 54 1012.6
20260509163520 23 135 1.6 3.2 0.00 0.00 0.00 53 1012.7
20260509162520 22 0.0 3.2 0.00 0.00 0.00 56 1012.8
20260509161522 21 0.0 1.6 0.00 0.00 0.00 58 1012.8
20260509160522 21 0.0 3.2 0.00 0.00 0.00 63 1012.9
20260509155522 20 0.0 1.6 0.00 0.00 0.00 63 1012.8
20260509154522 20 23 1.6 3.2 0.00 0.00 0.00 63 1012.8
20260509153522 20 0.0 3.2 0.00 0.00 0.00 66 1012.8
20260509152522 19 0.0 3.2 0.00 0.00 0.00 66 1012.9
20260509151522 18 0.0 3.2 0.00 0.00 0.00 68 1012.8
20260509150522 17 0.0 1.6 0.00 0.00 0.00 72 1012.9
20260509145522 17 0.0 0.0 0.00 0.00 0.00 75 1012.7
20260509144522 16 0.0 1.6 0.00 0.00 0.00 75 1012.6
20260509143612 16 0.0 0.0 0.00 0.00 0.00 80 1012.8
20260509142522 15 0.0 1.6 0.00 0.00 0.00 81 1012.5
20260509141522 14 0.0 1.6 0.00 0.00 0.00 84 1012.5
20260509140547 13 0.0 1.6 0.00 0.00 0.00 88 1012.6
20260509135522 13 0.0 1.6 0.00 0.00 0.00 90 1012.7
20260509134522 12 0.0 1.6 0.00 0.00 0.00 90 1013.0
20260509133522 12 0.0 0.0 0.00 0.00 0.00 88 1012.9
20260509132522 11 0.0 1.6 0.00 0.00 0.00 86 1012.9
20260509131522 11 0.0 1.6 0.00 0.00 0.00 84 1012.6
20260509130522 10 0.0 0.0 0.00 0.00 0.00 82 1012.5
20260509125522 10 0.0 1.6 0.00 0.00 0.00 80 1012.7
20260509124522 10 0.0 1.6 0.00 0.00 0.00 80 1012.8
20260509123522 9 0.0 1.6 0.00 0.00 0.00 81 1012.6
20260509122522 9 0.0 0.0 0.00 0.00 0.00 81 1012.6
20260509121522 8 0.0 0.0 0.00 0.00 0.00 82 1012.8
20260509120522 8 0.0 0.0 0.00 0.00 0.00 82 1013.1
20260509115522 8 0.0 0.0 0.00 0.00 0.00 83 1013.1
20260509114522 8 0.0 0.0 0.00 0.00 0.00 83 1013.3
20260509113547 8 0.0 0.0 0.00 0.00 0.00 83 1013.2
20260509112522 8 0.0 1.6 0.00 0.00 0.00 83 1013.1
20260509111522 8 0.0 0.0 0.00 0.00 0.00 84 1013.0
20260509110522 7 0.0 0.0 0.00 0.00 0.00 85 1013.0
20260509105521 7 0.0 0.0 0.00 0.00 0.00 86 1013.1
20260509104522 7 0.0 0.0 0.00 0.00 0.00 86 1012.9
20260509103702 7 0.0 0.0 0.00 0.00 0.00 87 1012.8
20260509102522 7 0.0 0.0 0.00 0.00 0.00 87 1012.6
20260509101547 8 0.0 1.6 0.00 0.00 0.00 87 1013.0
20260509100522 8 0.0 0.0 0.00 0.00 0.00 86 1013.0
20260509095612 8 0.0 0.0 0.00 0.00 0.00 86 1012.9
20260509094522 8 0.0 0.0 0.00 0.00 0.00 86 1013.2
20260509093522 7 0.0 0.0 0.00 0.00 0.00 87 1012.6
20260509092612 7 0.0 0.0 0.00 0.00 0.00 88 1012.4
20260509091522 7 0.0 0.0 0.00 0.00 0.00 88 1012.5
20260509090522 8 0.0 0.0 0.00 0.00 0.00 88 1012.7
20260509085522 8 0.0 0.0 0.00 0.00 0.00 88 1012.7
20260509084522 8 0.0 0.0 0.00 0.00 0.00 87 1012.8
20260509083521 8 0.0 0.0 0.00 0.00 0.00 88 1012.5
20260509082521 8 0.0 0.0 0.00 0.00 0.00 88 1012.6
20260509081521 8 0.0 0.0 0.00 0.00 0.00 89 1012.9
20260509080521 8 0.0 0.0 0.00 0.00 0.00 89 1013.0
20260509075521 8 0.0 0.0 0.00 0.00 0.00 89 1013.1
20260509074521 8 0.0 0.0 0.00 0.00 0.00 89 1013.1
20260509073521 8 0.0 0.0 0.00 0.00 0.00 89 1012.9
20260509072521 8 0.0 0.0 0.00 0.00 0.00 89 1012.9
20260509071521 8 0.0 0.0 0.00 0.00 0.00 90 1013.2
20260509070521 8 0.0 0.0 0.00 0.00 0.00 90 1013.2
20260509065521 8 0.0 0.0 0.00 0.00 0.00 90 1013.5
20260509064521 9 0.0 0.0 0.00 0.00 0.00 90 1013.8
20260509063546 9 0.0 0.0 0.00 0.00 0.00 90 1013.9
20260509062546 9 0.0 0.0 0.00 0.00 0.00 90 1013.9
20260509061521 10 0.0 0.0 0.00 0.00 0.00 90 1014.1
20260509060546 10 0.0 0.0 0.00 0.00 0.00 90 1014.4
20260509055521 10 0.0 0.0 0.00 0.00 0.00 90 1014.2
20260509054521 10 0.0 0.0 0.00 0.00 0.00 90 1014.7
20260509053521 10 0.0 0.0 0.00 0.00 0.00 89 1014.7
20260509052521 10 0.0 0.0 0.00 0.00 0.00 89 1014.8
20260509051521 10 0.0 0.0 0.00 0.00 0.00 89 1014.9
20260509050521 10 0.0 0.0 0.00 0.00 0.00 89 1015.1
20260509045521 11 0.0 0.0 0.00 0.00 0.00 89 1015.1
20260509044521 11 0.0 0.0 0.00 0.00 0.00 88 1015.0
20260509043521 11 0.0 0.0 0.00 0.00 0.00 88 1015.2
20260509042521 11 0.0 0.0 0.00 0.00 0.00 88 1015.1
20260509041521 11 0.0 0.0 0.00 0.00 0.00 87 1014.9
20260509040521 11 0.0 0.0 0.00 0.00 0.00 87 1015.1
20260509035522 11 0.0 0.0 0.00 0.00 0.00 86 1015.0
20260509034521 11 0.0 0.0 0.00 0.00 0.00 86 1015.3
20260509033521 12 0.0 0.0 0.00 0.00 0.00 85 1015.4
20260509032521 12 0.0 0.0 0.00 0.00 0.00 84 1015.3
20260509031521 12 0.0 0.0 0.00 0.00 0.00 83 1015.1
20260509030521 12 0.0 0.0 0.00 0.00 0.00 82 1015.3
20260509025521 12 0.0 0.0 0.00 0.00 0.00 81 1015.0
20260509024521 13 0.0 0.0 0.00 0.00 0.00 80 1015.0
20260509023521 13 0.0 0.0 0.00 0.00 0.00 80 1014.9
20260509022521 13 0.0 0.0 0.00 0.00 0.00 79 1014.9
20260509021521 13 0.0 0.0 0.00 0.00 0.00 77 1014.6
20260509020521 13 0.0 0.0 0.00 0.00 0.00 77 1014.9
20260509015546 14 0.0 0.0 0.00 0.00 0.00 75 1014.9
20260509014521 14 0.0 0.0 0.00 0.00 0.00 75 1014.5
20260509013521 14 0.0 1.6 0.00 0.00 0.00 74 1014.5
20260509012521 15 0.0 1.6 0.00 0.00 0.00 74 1014.3
20260509011521 15 0.0 0.0 0.00 0.00 0.00 73 1014.1
20260509010521 15 0.0 0.0 0.00 0.00 0.00 73 1014.2
20260509005521 15 0.0 1.6 0.00 0.00 0.00 72 1014.1
20260509004521 15 0.0 1.6 0.00 0.00 0.00 71 1013.9
20260509003521 15 0.0 1.6 0.00 0.00 0.00 71 1013.8
20260509002521 15 113 1.6 3.2 0.00 0.00 0.00 70 1013.8
20260509001521 15 135 1.6 3.2 0.00 0.00 0.00 69 1013.7
20260509000521 16 135 1.6 3.2 0.00 0.00 0.00 69 1013.7
20260508235521 16 203 1.6 4.8 0.00 0.00 0.00 69 1013.7
20260508234546 16 135 1.6 6.4 0.00 0.00 0.00 68 1013.7
20260508233546 16 135 1.6 4.8 0.00 0.00 0.00 67 1013.8
20260508232521 16 135 1.6 3.2 0.00 0.00 0.00 66 1013.8
20260508231521 16 135 3.2 4.8 0.00 0.00 0.00 64 1013.6
20260508230521 17 113 1.6 4.8 0.00 0.00 0.00 65 1013.6
20260508225521 17 158 1.6 3.2 0.00 0.00 0.00 63 1013.8
20260508224521 17 113 3.2 6.4 0.00 0.00 0.00 62 1013.6
20260508223521 17 113 3.2 6.4 0.00 0.00 0.00 61 1013.8
20260508222546 18 135 1.6 8.0 0.00 0.00 0.00 60 1013.8
20260508221521 18 135 3.2 6.4 0.00 0.00 0.00 60 1013.9
20260508220521 18 113 1.6 6.4 0.00 0.00 0.00 59 1013.8
20260508215521 18 135 1.6 3.2 0.00 0.00 0.00 59 1013.9
20260508214521 18 135 1.6 4.8 0.00 0.00 0.00 57 1013.9
20260508213521 19 135 1.6 6.4 0.00 0.00 0.00 56 1014.3
20260508212521 19 203 1.6 3.2 0.00 0.00 0.00 56 1014.1
20260508211521 19 135 1.6 4.8 0.00 0.00 0.00 56 1014.0
20260508210520 19 203 1.6 3.2 0.00 0.00 0.00 56 1014.0
20260508205521 19 0.0 1.6 0.00 0.00 0.00 58 1014.0
20260508204521 18 135 1.6 3.2 0.00 0.00 0.00 55 1014.3
20260508203521 19 90 1.6 4.8 0.00 0.00 0.00 55 1014.3
20260508202520 19 0.0 1.6 0.00 0.00 0.00 56 1014.5
20260508201521 19 135 1.6 3.2 0.00 0.00 0.00 56 1014.4
20260508200520 19 135 3.2 4.8 0.00 0.00 0.00 54 1014.6
20260508195520 20 0.0 3.2 0.00 0.00 0.00 55 1015.1
20260508194521 20 203 1.6 3.2 0.00 0.00 0.00 54 1015.4
20260508193520 20 158 1.6 3.2 0.00 0.00 0.00 53 1015.7
20260508192520 20 135 1.6 4.8 0.00 0.00 0.00 52 1015.7
20260508191520 20 45 1.6 8.0 0.00 0.00 0.00 51 1016.1
20260508190520 20 68 1.6 4.8 0.00 0.00 0.00 54 1015.9
20260508185521 20 90 3.2 6.4 0.00 0.00 0.00 51 1016.2
20260508184520 20 135 3.2 6.4 0.00 0.00 0.00 52 1016.2
20260508183520 20 203 1.6 8.0 0.00 0.00 0.00 52 1016.5
20260508182545 20 135 1.6 4.8 0.00 0.00 0.00 52 1016.5
20260508181520 20 113 3.2 6.4 0.00 0.00 0.00 51 1016.9
20260508180520 20 135 1.6 6.4 0.00 0.00 0.00 51 1016.9